Year,Month,Day,Hour,Minute,Value (Times are PST for windspeed in km/hr)
2012,01,25,00,00,34.40
2012,01,25,00,01,36.00
2012,01,25,00,02,38.30
2012,01,25,00,03,34.40
2012,01,25,00,04,36.70
2012,01,25,00,05,35.00
2012,01,25,00,06,28.40
2012,01,25,00,07,41.90
2012,01,25,00,08,36.50
2012,01,25,00,09,40.00
2012,01,25,00,10,33.40
2012,01,25,00,11,37.20
2012,01,25,00,12,39.40
2012,01,25,00,13,35.20
2012,01,25,00,14,36.40
2012,01,25,00,15,41.10
2012,01,25,00,16,36.30
2012,01,25,00,17,35.60
2012,01,25,00,18,34.80
2012,01,25,00,19,29.60
2012,01,25,00,20,35.10
2012,01,25,00,21,35.50
2012,01,25,00,22,40.70
2012,01,25,00,23,39.50
2012,01,25,00,24,37.60
2012,01,25,00,25,41.50
2012,01,25,00,26,38.00
2012,01,25,00,27,35.30
2012,01,25,00,28,34.60
2012,01,25,00,29,32.30
2012,01,25,00,30,35.60
2012,01,25,00,31,39.10
2012,01,25,00,32,45.10
2012,01,25,00,33,35.00
2012,01,25,00,34,34.40
2012,01,25,00,35,38.10
2012,01,25,00,36,33.60
2012,01,25,00,37,45.80
2012,01,25,00,38,38.70
2012,01,25,00,39,30.40
2012,01,25,00,40,28.40
2012,01,25,00,41,46.10
2012,01,25,00,42,49.80
2012,01,25,00,43,49.60
2012,01,25,00,44,48.10
2012,01,25,00,45,54.40
2012,01,25,00,46,48.70
2012,01,25,00,47,39.70
2012,01,25,00,48,48.60
2012,01,25,00,49,41.40
2012,01,25,00,50,40.50
2012,01,25,00,51,48.20
2012,01,25,00,52,59.50
2012,01,25,00,53,40.00
2012,01,25,00,54,43.50
2012,01,25,00,55,40.10
2012,01,25,00,56,52.70
2012,01,25,00,57,45.00
2012,01,25,00,58,51.90
2012,01,25,00,59,31.00
2012,01,25,01,00,36.90
2012,01,25,01,01,36.90
2012,01,25,01,02,44.80
2012,01,25,01,03,44.30
2012,01,25,01,04,45.10
2012,01,25,01,05,37.40
2012,01,25,01,06,46.90
2012,01,25,01,07,40.50
2012,01,25,01,08,51.70
2012,01,25,01,09,41.10
2012,01,25,01,10,34.60
2012,01,25,01,11,31.60
2012,01,25,01,12,31.40
2012,01,25,01,13,38.70
2012,01,25,01,14,36.80
2012,01,25,01,15,50.00
2012,01,25,01,16,41.50
2012,01,25,01,17,31.10
2012,01,25,01,18,31.30
2012,01,25,01,19,36.10
2012,01,25,01,20,25.70
2012,01,25,01,21,36.00
2012,01,25,01,22,37.90
2012,01,25,01,23,33.10
2012,01,25,01,24,35.80
2012,01,25,01,25,43.60
2012,01,25,01,26,34.70
2012,01,25,01,27,33.10
2012,01,25,01,28,46.20
2012,01,25,01,29,36.80
2012,01,25,01,30,45.70
2012,01,25,01,31,40.30
2012,01,25,01,32,43.90
2012,01,25,01,33,45.50
2012,01,25,01,34,41.90
2012,01,25,01,35,50.80
2012,01,25,01,36,43.90
2012,01,25,01,37,41.00
2012,01,25,01,38,46.70
2012,01,25,01,39,48.00
2012,01,25,01,40,45.20
2012,01,25,01,41,45.90
2012,01,25,01,42,41.60
2012,01,25,01,43,44.20
2012,01,25,01,44,43.80
2012,01,25,01,45,50.60
2012,01,25,01,46,49.60
2012,01,25,01,47,51.60
2012,01,25,01,48,44.70
2012,01,25,01,49,42.40
2012,01,25,01,50,47.20
2012,01,25,01,51,45.10
2012,01,25,01,52,52.90
2012,01,25,01,53,42.20
2012,01,25,01,54,47.00
2012,01,25,01,55,45.30
2012,01,25,01,56,41.10
2012,01,25,01,57,47.20
2012,01,25,01,58,38.30
2012,01,25,01,59,41.00
2012,01,25,02,00,34.10
2012,01,25,02,01,35.60
2012,01,25,02,02,38.50
2012,01,25,02,03,43.00
2012,01,25,02,04,37.70
2012,01,25,02,05,33.80
2012,01,25,02,06,43.00
2012,01,25,02,07,44.20
2012,01,25,02,08,32.00
2012,01,25,02,09,32.80
2012,01,25,02,10,31.90
2012,01,25,02,11,30.60
2012,01,25,02,12,28.50
2012,01,25,02,13,30.00
2012,01,25,02,14,34.30
2012,01,25,02,15,29.60
2012,01,25,02,16,30.30
2012,01,25,02,17,33.90
2012,01,25,02,18,34.90
2012,01,25,02,19,35.70
2012,01,25,02,20,32.10
2012,01,25,02,21,28.90
2012,01,25,02,22,22.90
2012,01,25,02,23,34.00
2012,01,25,02,24,33.50
2012,01,25,02,25,38.50
2012,01,25,02,26,36.10
2012,01,25,02,27,41.90
2012,01,25,02,28,38.20
2012,01,25,02,29,29.70
2012,01,25,02,30,27.80
2012,01,25,02,31,36.70
2012,01,25,02,32,34.90
2012,01,25,02,33,32.00
2012,01,25,02,34,29.50
2012,01,25,02,35,29.10
2012,01,25,02,36,42.60
2012,01,25,02,37,54.40
2012,01,25,02,38,38.50
2012,01,25,02,39,27.70
2012,01,25,02,40,35.30
2012,01,25,02,41,38.50
2012,01,25,02,42,24.80
2012,01,25,02,43,19.30
2012,01,25,02,44,23.00
2012,01,25,02,45,21.90
2012,01,25,02,46,22.90
2012,01,25,02,47,17.60
2012,01,25,02,48,26.30
2012,01,25,02,49,26.30
2012,01,25,02,50,17.60
2012,01,25,02,51,18.90
2012,01,25,02,52,18.60
2012,01,25,02,53,17.60
2012,01,25,02,54,21.90
2012,01,25,02,55,18.20
2012,01,25,02,56,16.50
2012,01,25,02,57,15.80
2012,01,25,02,58,12.10
2012,01,25,02,59,12.90
2012,01,25,03,00,14.60
2012,01,25,03,01,10.70
2012,01,25,03,02,15.10
2012,01,25,03,03,17.40
2012,01,25,03,04,13.30
2012,01,25,03,05,10.80
2012,01,25,03,06,7.90
2012,01,25,03,07,7.60
2012,01,25,03,08,16.40
2012,01,25,03,09,15.20
2012,01,25,03,10,9.10
2012,01,25,03,11,8.00
2012,01,25,03,12,7.40
2012,01,25,03,13,3.10
2012,01,25,03,14,2.10
2012,01,25,03,15,4.80
2012,01,25,03,16,6.00
2012,01,25,03,17,11.30
2012,01,25,03,18,6.80
2012,01,25,03,19,6.60
2012,01,25,03,20,8.10
2012,01,25,03,21,14.40
2012,01,25,03,22,10.50
2012,01,25,03,23,5.70
2012,01,25,03,24,0.40
2012,01,25,03,25,1.00
2012,01,25,03,26,0.50
2012,01,25,03,27,0.00
2012,01,25,03,28,0.00
2012,01,25,03,29,0.00
2012,01,25,03,30,0.30
2012,01,25,03,31,3.40
2012,01,25,03,32,3.50
2012,01,25,03,33,0.30
2012,01,25,03,34,1.50
2012,01,25,03,35,4.70
2012,01,25,03,36,6.10
2012,01,25,03,37,3.10
2012,01,25,03,38,1.10
2012,01,25,03,39,1.50
2012,01,25,03,40,4.00
2012,01,25,03,41,5.30
2012,01,25,03,42,7.60
2012,01,25,03,43,9.40
2012,01,25,03,44,9.40
2012,01,25,03,45,5.90
2012,01,25,03,46,4.70
2012,01,25,03,47,3.60
2012,01,25,03,48,6.80
2012,01,25,03,49,6.00
2012,01,25,03,50,10.70
2012,01,25,03,51,8.50
2012,01,25,03,52,8.40
2012,01,25,03,53,6.00
2012,01,25,03,54,7.50
2012,01,25,03,55,6.00
2012,01,25,03,56,8.70
2012,01,25,03,57,15.60
2012,01,25,03,58,7.80
2012,01,25,03,59,4.00
2012,01,25,04,00,5.50
2012,01,25,04,01,3.20
2012,01,25,04,02,2.20
2012,01,25,04,03,1.10
2012,01,25,04,04,1.60
2012,01,25,04,05,2.50
2012,01,25,04,06,1.30
2012,01,25,04,07,3.40
2012,01,25,04,08,0.80
2012,01,25,04,09,5.80
2012,01,25,04,10,5.60
2012,01,25,04,11,7.70
2012,01,25,04,12,12.90
2012,01,25,04,13,10.50
2012,01,25,04,14,8.40
2012,01,25,04,15,8.90
2012,01,25,04,16,18.20
2012,01,25,04,17,17.30
2012,01,25,04,18,16.90
2012,01,25,04,19,17.60
2012,01,25,04,20,15.00
2012,01,25,04,21,15.40
2012,01,25,04,22,16.70
2012,01,25,04,23,11.60
2012,01,25,04,24,14.60
2012,01,25,04,25,14.20
2012,01,25,04,26,7.10
2012,01,25,04,27,11.90
2012,01,25,04,28,10.60
2012,01,25,04,29,10.90
2012,01,25,04,30,14.20
2012,01,25,04,31,17.70
2012,01,25,04,32,18.20
2012,01,25,04,33,17.20
2012,01,25,04,34,19.50
2012,01,25,04,35,14.90
2012,01,25,04,36,15.20
2012,01,25,04,37,21.30
2012,01,25,04,38,17.50
2012,01,25,04,39,24.30
2012,01,25,04,40,17.00
2012,01,25,04,41,14.00
2012,01,25,04,42,10.80
2012,01,25,04,43,5.70
2012,01,25,04,44,5.80
2012,01,25,04,45,7.10
2012,01,25,04,46,3.20
2012,01,25,04,47,6.70
2012,01,25,04,48,3.50
2012,01,25,04,49,0.40
2012,01,25,04,50,2.70
2012,01,25,04,51,6.70
2012,01,25,04,52,15.10
2012,01,25,04,53,10.60
2012,01,25,04,54,8.00
2012,01,25,04,55,10.30
2012,01,25,04,56,8.90
2012,01,25,04,57,3.80
2012,01,25,04,58,6.20
2012,01,25,04,59,9.30
2012,01,25,05,00,8.30
2012,01,25,05,01,10.50
2012,01,25,05,02,8.10
2012,01,25,05,03,4.90
2012,01,25,05,04,9.30
2012,01,25,05,05,5.50
2012,01,25,05,06,9.20
2012,01,25,05,07,10.30
2012,01,25,05,08,17.90
2012,01,25,05,09,14.20
2012,01,25,05,10,11.50
2012,01,25,05,11,11.60
2012,01,25,05,12,13.00
2012,01,25,05,13,10.20
2012,01,25,05,14,11.20
2012,01,25,05,15,15.00
2012,01,25,05,16,13.60
2012,01,25,05,17,13.00
2012,01,25,05,18,13.30
2012,01,25,05,19,13.10
2012,01,25,05,20,12.40
2012,01,25,05,21,10.60
2012,01,25,05,22,8.80
2012,01,25,05,23,9.60
2012,01,25,05,24,12.10
2012,01,25,05,25,11.30
2012,01,25,05,26,6.90
2012,01,25,05,27,7.00
2012,01,25,05,28,11.30
2012,01,25,05,29,8.50
2012,01,25,05,30,7.50
2012,01,25,05,31,16.90
2012,01,25,05,32,13.10
2012,01,25,05,33,7.60
2012,01,25,05,34,10.60
2012,01,25,05,35,6.80
2012,01,25,05,36,8.70
2012,01,25,05,37,10.10
2012,01,25,05,38,17.60
2012,01,25,05,39,18.40
2012,01,25,05,40,15.10
2012,01,25,05,41,20.90
2012,01,25,05,42,24.50
2012,01,25,05,43,17.70
2012,01,25,05,44,17.10
2012,01,25,05,45,13.00
2012,01,25,05,46,16.90
2012,01,25,05,47,17.10
2012,01,25,05,48,11.20
2012,01,25,05,49,10.40
2012,01,25,05,50,11.30
2012,01,25,05,51,10.90
2012,01,25,05,52,11.00
2012,01,25,05,53,8.10
2012,01,25,05,54,6.40
2012,01,25,05,55,6.00
2012,01,25,05,56,4.30
2012,01,25,05,57,0.90
2012,01,25,05,58,1.50
2012,01,25,05,59,0.00
2012,01,25,06,00,0.30
2012,01,25,06,01,2.00
2012,01,25,06,02,0.20
2012,01,25,06,03,6.80
2012,01,25,06,04,6.80
2012,01,25,06,05,6.90
2012,01,25,06,06,8.00
2012,01,25,06,07,8.70
2012,01,25,06,08,6.90
2012,01,25,06,09,4.40
2012,01,25,06,10,5.60
2012,01,25,06,11,4.60
2012,01,25,06,12,2.40
2012,01,25,06,13,6.60
2012,01,25,06,14,6.30
2012,01,25,06,15,7.10
2012,01,25,06,16,4.70
2012,01,25,06,17,3.00
2012,01,25,06,18,0.30
2012,01,25,06,19,0.10
2012,01,25,06,20,0.00
2012,01,25,06,21,0.10
2012,01,25,06,22,0.00
2012,01,25,06,23,0.00
2012,01,25,06,24,0.00
2012,01,25,06,25,1.00
2012,01,25,06,26,4.00
2012,01,25,06,27,4.40
2012,01,25,06,28,5.20
2012,01,25,06,29,3.90
2012,01,25,06,30,2.10
2012,01,25,06,31,0.80
2012,01,25,06,32,3.00
2012,01,25,06,33,1.80
2012,01,25,06,34,3.10
2012,01,25,06,35,2.40
2012,01,25,06,36,2.70
2012,01,25,06,37,5.50
2012,01,25,06,38,4.30
2012,01,25,06,39,1.10
2012,01,25,06,40,2.00
2012,01,25,06,41,2.60
2012,01,25,06,42,2.00
2012,01,25,06,43,3.40
2012,01,25,06,44,3.90
2012,01,25,06,45,3.80
2012,01,25,06,46,5.40
2012,01,25,06,47,6.20
2012,01,25,06,48,1.80
2012,01,25,06,49,2.60
2012,01,25,06,50,3.90
2012,01,25,06,51,8.50
2012,01,25,06,52,7.60
2012,01,25,06,53,6.80
2012,01,25,06,54,4.70
2012,01,25,06,55,3.20
2012,01,25,06,56,3.90
2012,01,25,06,57,0.20
2012,01,25,06,58,0.00
2012,01,25,06,59,0.00
2012,01,25,07,00,0.00
2012,01,25,07,01,3.00
2012,01,25,07,02,4.40
2012,01,25,07,03,4.70
2012,01,25,07,04,5.60
2012,01,25,07,05,6.10
2012,01,25,07,06,11.80
2012,01,25,07,07,11.20
2012,01,25,07,08,12.20
2012,01,25,07,09,7.20
2012,01,25,07,10,7.20
2012,01,25,07,11,9.70
2012,01,25,07,12,8.50
2012,01,25,07,13,9.30
2012,01,25,07,14,7.20
2012,01,25,07,15,6.80
2012,01,25,07,16,5.00
2012,01,25,07,17,5.20
2012,01,25,07,18,11.30
2012,01,25,07,19,13.20
2012,01,25,07,20,12.60
2012,01,25,07,21,4.30
2012,01,25,07,22,10.90
2012,01,25,07,23,11.30
2012,01,25,07,24,8.90
2012,01,25,07,25,13.30
2012,01,25,07,26,12.00
2012,01,25,07,27,6.70
2012,01,25,07,28,13.00
2012,01,25,07,29,9.30
2012,01,25,07,30,4.90
2012,01,25,07,31,7.60
2012,01,25,07,32,9.30
2012,01,25,07,33,9.70
2012,01,25,07,34,11.20
2012,01,25,07,35,17.20
2012,01,25,07,36,15.70
2012,01,25,07,37,18.50
2012,01,25,07,38,16.90
2012,01,25,07,39,24.10
2012,01,25,07,40,19.60
2012,01,25,07,41,15.90
2012,01,25,07,42,15.20
2012,01,25,07,43,10.40
2012,01,25,07,44,13.70
2012,01,25,07,45,13.20
2012,01,25,07,46,12.70
2012,01,25,07,47,10.80
2012,01,25,07,48,9.70
2012,01,25,07,49,13.60
2012,01,25,07,50,14.50
2012,01,25,07,51,15.00
2012,01,25,07,52,9.30
2012,01,25,07,53,10.10
2012,01,25,07,54,7.20
2012,01,25,07,55,8.10
2012,01,25,07,56,6.00
2012,01,25,07,57,7.40
2012,01,25,07,58,4.80
2012,01,25,07,59,6.50
2012,01,25,08,00,4.30
2012,01,25,08,01,7.00
2012,01,25,08,02,8.60
2012,01,25,08,03,9.00
2012,01,25,08,04,8.70
2012,01,25,08,05,6.80
2012,01,25,08,06,5.30
2012,01,25,08,07,4.20
2012,01,25,08,08,4.60
2012,01,25,08,09,2.30
2012,01,25,08,10,8.30
2012,01,25,08,11,10.20
2012,01,25,08,12,9.90
2012,01,25,08,13,8.90
2012,01,25,08,14,7.20
2012,01,25,08,15,6.20
2012,01,25,08,16,4.80
2012,01,25,08,17,0.50
2012,01,25,08,18,0.20
2012,01,25,08,19,0.00
2012,01,25,08,20,0.00
2012,01,25,08,21,2.60
2012,01,25,08,22,3.10
2012,01,25,08,23,2.80
2012,01,25,08,24,2.60
2012,01,25,08,25,0.80
2012,01,25,08,26,2.80
2012,01,25,08,27,2.50
2012,01,25,08,28,0.00
2012,01,25,08,29,0.00
2012,01,25,08,30,0.00
2012,01,25,08,31,0.10
2012,01,25,08,32,2.60
2012,01,25,08,33,4.30
2012,01,25,08,34,4.60
2012,01,25,08,35,5.60
2012,01,25,08,36,3.00
2012,01,25,08,37,5.70
2012,01,25,08,38,6.40
2012,01,25,08,39,6.00
2012,01,25,08,40,5.20
2012,01,25,08,41,6.80
2012,01,25,08,42,8.70
2012,01,25,08,43,6.20
2012,01,25,08,44,6.40
2012,01,25,08,45,6.50
2012,01,25,08,46,8.40
2012,01,25,08,47,14.40
2012,01,25,08,48,8.20
2012,01,25,08,49,6.70
2012,01,25,08,50,5.60
2012,01,25,08,51,5.70
2012,01,25,08,52,4.70
2012,01,25,08,53,3.60
2012,01,25,08,54,7.10
2012,01,25,08,55,4.10
2012,01,25,08,56,2.70
2012,01,25,08,57,4.10
2012,01,25,08,58,1.60
2012,01,25,08,59,2.80
2012,01,25,09,00,5.90
2012,01,25,09,01,7.70
2012,01,25,09,02,6.10
2012,01,25,09,03,6.50
2012,01,25,09,04,6.20
2012,01,25,09,05,6.00
2012,01,25,09,06,6.30
2012,01,25,09,07,4.10
2012,01,25,09,08,5.00
2012,01,25,09,09,6.20
2012,01,25,09,10,2.80
2012,01,25,09,11,4.00
2012,01,25,09,12,5.00
2012,01,25,09,13,4.70
2012,01,25,09,14,6.40
2012,01,25,09,15,5.90
2012,01,25,09,16,6.80
2012,01,25,09,17,6.00
2012,01,25,09,18,4.10
2012,01,25,09,19,5.70
2012,01,25,09,20,6.00
2012,01,25,09,21,2.00
2012,01,25,09,22,2.70
2012,01,25,09,23,7.30
2012,01,25,09,24,2.40
2012,01,25,09,25,2.10
2012,01,25,09,26,0.00
2012,01,25,09,27,2.60
2012,01,25,09,28,0.00
2012,01,25,09,29,1.40
2012,01,25,09,30,2.70
2012,01,25,09,31,2.80
2012,01,25,09,32,5.30
2012,01,25,09,33,3.90
2012,01,25,09,34,6.80
2012,01,25,09,35,4.60
2012,01,25,09,36,6.80
2012,01,25,09,37,6.50
2012,01,25,09,38,7.70
2012,01,25,09,39,9.00
2012,01,25,09,40,8.70
2012,01,25,09,41,10.00
2012,01,25,09,42,12.10
2012,01,25,09,43,10.10
2012,01,25,09,44,8.90
2012,01,25,09,45,8.70
2012,01,25,09,46,7.80
2012,01,25,09,47,6.60
2012,01,25,09,48,11.40
2012,01,25,09,49,7.70
2012,01,25,09,50,10.00
2012,01,25,09,51,10.00
2012,01,25,09,52,13.40
2012,01,25,09,53,17.20
2012,01,25,09,54,18.40
2012,01,25,09,55,17.40
2012,01,25,09,56,16.20
2012,01,25,09,57,18.90
2012,01,25,09,58,20.70
2012,01,25,09,59,18.90
2012,01,25,10,00,27.30
2012,01,25,10,01,27.80
2012,01,25,10,02,22.90
2012,01,25,10,03,21.00
2012,01,25,10,04,17.60
2012,01,25,10,05,19.10
2012,01,25,10,06,16.70
2012,01,25,10,07,15.50
2012,01,25,10,08,14.10
2012,01,25,10,09,10.50
2012,01,25,10,10,15.70
2012,01,25,10,11,21.00
2012,01,25,10,12,20.50
2012,01,25,10,13,21.70
2012,01,25,10,14,18.70
2012,01,25,10,15,17.70
2012,01,25,10,16,17.20
2012,01,25,10,17,16.30
2012,01,25,10,18,16.30
2012,01,25,10,19,15.10
2012,01,25,10,20,10.00
2012,01,25,10,21,13.70
2012,01,25,10,22,14.90
2012,01,25,10,23,10.50
2012,01,25,10,24,8.30
2012,01,25,10,25,9.10
2012,01,25,10,26,12.80
2012,01,25,10,27,15.40
2012,01,25,10,28,14.90
2012,01,25,10,29,22.60
2012,01,25,10,30,17.70
2012,01,25,10,31,14.60
2012,01,25,10,32,17.70
2012,01,25,10,33,13.10
2012,01,25,10,34,14.40
2012,01,25,10,35,15.90
2012,01,25,10,36,15.10
2012,01,25,10,37,21.20
2012,01,25,10,38,17.10
2012,01,25,10,39,10.90
2012,01,25,10,40,11.70
2012,01,25,10,41,13.00
2012,01,25,10,42,19.40
2012,01,25,10,43,16.30
2012,01,25,10,44,18.80
2012,01,25,10,45,12.20
2012,01,25,10,46,15.80
2012,01,25,10,47,15.40
2012,01,25,10,48,16.50
2012,01,25,10,49,15.90
2012,01,25,10,50,16.90
2012,01,25,10,51,12.20
2012,01,25,10,52,15.90
2012,01,25,10,53,14.50
2012,01,25,10,54,9.50
2012,01,25,10,55,9.20
2012,01,25,10,56,9.80
2012,01,25,10,57,12.20
2012,01,25,10,58,9.30
2012,01,25,10,59,12.30
2012,01,25,11,00,12.20
2012,01,25,11,01,12.70
2012,01,25,11,02,14.70
2012,01,25,11,03,10.00
2012,01,25,11,04,10.90
2012,01,25,11,05,9.30
2012,01,25,11,06,13.80
2012,01,25,11,07,10.30
2012,01,25,11,08,9.60
2012,01,25,11,09,8.60
2012,01,25,11,10,5.10
2012,01,25,11,11,6.60
2012,01,25,11,12,17.00
2012,01,25,11,13,9.70
2012,01,25,11,14,13.50
2012,01,25,11,15,12.00
2012,01,25,11,16,7.80
2012,01,25,11,17,7.20
2012,01,25,11,18,6.10
2012,01,25,11,19,6.40
2012,01,25,11,20,7.70
2012,01,25,11,21,15.10
2012,01,25,11,22,17.70
2012,01,25,11,23,10.90
2012,01,25,11,24,15.60
2012,01,25,11,25,11.70
2012,01,25,11,26,21.00
2012,01,25,11,27,17.50
2012,01,25,11,28,13.10
2012,01,25,11,29,16.40
2012,01,25,11,30,14.80
2012,01,25,11,31,10.10
2012,01,25,11,32,10.10
2012,01,25,11,33,15.00
2012,01,25,11,34,14.90
2012,01,25,11,35,12.40
2012,01,25,11,36,18.70
2012,01,25,11,37,18.20
2012,01,25,11,38,15.80
2012,01,25,11,39,16.10
2012,01,25,11,40,15.30
2012,01,25,11,41,12.60
2012,01,25,11,42,12.20
2012,01,25,11,43,11.90
2012,01,25,11,44,11.70
2012,01,25,11,45,13.40
2012,01,25,11,46,13.80
2012,01,25,11,47,10.90
2012,01,25,11,48,12.30
2012,01,25,11,49,14.20
2012,01,25,11,50,17.90
2012,01,25,11,51,21.00
2012,01,25,11,52,15.40
2012,01,25,11,53,17.10
2012,01,25,11,54,17.10
2012,01,25,11,55,19.90
2012,01,25,11,56,16.90
2012,01,25,11,57,18.70
2012,01,25,11,58,16.30
2012,01,25,11,59,13.60
2012,01,25,12,00,9.70
2012,01,25,12,01,9.70
2012,01,25,12,02,9.00
2012,01,25,12,03,14.60
2012,01,25,12,04,18.50
2012,01,25,12,05,15.80
2012,01,25,12,06,14.10
2012,01,25,12,07,13.50
2012,01,25,12,08,15.80
2012,01,25,12,09,18.20
2012,01,25,12,10,19.60
2012,01,25,12,11,18.20
2012,01,25,12,12,21.90
2012,01,25,12,13,16.00
2012,01,25,12,14,18.00
2012,01,25,12,15,20.80
2012,01,25,12,16,17.30
2012,01,25,12,17,22.20
2012,01,25,12,18,36.50
2012,01,25,12,19,32.20
2012,01,25,12,20,36.60
2012,01,25,12,21,28.00
2012,01,25,12,22,29.40
2012,01,25,12,23,27.70
2012,01,25,12,24,27.20
2012,01,25,12,25,24.40
2012,01,25,12,26,20.70
2012,01,25,12,27,25.10
2012,01,25,12,28,23.10
2012,01,25,12,29,29.90
2012,01,25,12,30,27.00
2012,01,25,12,31,25.60
2012,01,25,12,32,22.80
2012,01,25,12,33,22.10
2012,01,25,12,34,17.30
2012,01,25,12,35,14.10
2012,01,25,12,36,16.30
2012,01,25,12,37,15.60
2012,01,25,12,38,14.40
2012,01,25,12,39,13.60
2012,01,25,12,40,14.80
2012,01,25,12,41,18.30
2012,01,25,12,42,20.00
2012,01,25,12,43,19.20
2012,01,25,12,44,11.60
2012,01,25,12,45,9.10
2012,01,25,12,46,11.60
2012,01,25,12,47,18.70
2012,01,25,12,48,15.80
2012,01,25,12,49,12.20
2012,01,25,12,50,9.30
2012,01,25,12,51,14.30
2012,01,25,12,52,16.70
2012,01,25,12,53,15.90
2012,01,25,12,54,12.50
2012,01,25,12,55,12.40
2012,01,25,12,56,17.10
2012,01,25,12,57,19.30
2012,01,25,12,58,16.40
2012,01,25,12,59,17.10
2012,01,25,13,00,24.20
2012,01,25,13,01,14.20
2012,01,25,13,02,20.90
2012,01,25,13,03,24.50
2012,01,25,13,04,18.70
2012,01,25,13,05,21.30
2012,01,25,13,06,24.20
2012,01,25,13,07,18.80
2012,01,25,13,08,16.70
2012,01,25,13,09,22.80
2012,01,25,13,10,19.30
2012,01,25,13,11,18.20
2012,01,25,13,12,13.80
2012,01,25,13,13,11.00
2012,01,25,13,14,6.60
2012,01,25,13,15,8.30
2012,01,25,13,16,9.50
2012,01,25,13,17,9.90
2012,01,25,13,18,5.60
2012,01,25,13,19,11.90
2012,01,25,13,20,16.00
2012,01,25,13,21,11.70
2012,01,25,13,22,9.30
2012,01,25,13,23,8.40
2012,01,25,13,24,12.90
2012,01,25,13,25,11.80
2012,01,25,13,26,10.20
2012,01,25,13,27,14.30
2012,01,25,13,28,11.10
2012,01,25,13,29,16.80
2012,01,25,13,30,20.80
2012,01,25,13,31,18.40
2012,01,25,13,32,16.60
2012,01,25,13,33,21.90
2012,01,25,13,34,19.10
2012,01,25,13,35,21.50
2012,01,25,13,36,20.00
2012,01,25,13,37,8.80
2012,01,25,13,38,8.00
2012,01,25,13,39,12.10
2012,01,25,13,40,8.20
2012,01,25,13,41,6.20
2012,01,25,13,42,6.10
2012,01,25,13,43,6.80
2012,01,25,13,44,6.60
2012,01,25,13,45,8.10
2012,01,25,13,46,10.10
2012,01,25,13,47,9.80
2012,01,25,13,48,15.50
2012,01,25,13,49,18.70
2012,01,25,13,50,15.40
2012,01,25,13,51,10.70
2012,01,25,13,52,7.70
2012,01,25,13,53,14.60
2012,01,25,13,54,13.20
2012,01,25,13,55,9.90
2012,01,25,13,56,13.20
2012,01,25,13,57,12.30
2012,01,25,13,58,19.90
2012,01,25,13,59,14.00
2012,01,25,14,00,20.50
2012,01,25,14,01,17.00
2012,01,25,14,02,16.40
2012,01,25,14,03,18.10
2012,01,25,14,04,19.30
2012,01,25,14,05,15.00
2012,01,25,14,06,18.50
2012,01,25,14,07,19.10
2012,01,25,14,08,19.30
2012,01,25,14,09,16.70
2012,01,25,14,10,9.20
2012,01,25,14,11,10.90
2012,01,25,14,12,15.40
2012,01,25,14,13,20.40
2012,01,25,14,14,24.40
2012,01,25,14,15,27.40
2012,01,25,14,16,25.50
2012,01,25,14,17,17.40
2012,01,25,14,18,16.70
2012,01,25,14,19,20.40
2012,01,25,14,20,20.40
2012,01,25,14,21,32.70
2012,01,25,14,22,30.90
2012,01,25,14,23,27.50
2012,01,25,14,24,26.40
2012,01,25,14,25,23.70
2012,01,25,14,26,26.70
2012,01,25,14,27,18.80
2012,01,25,14,28,25.30
2012,01,25,14,29,23.80
2012,01,25,14,30,27.20
2012,01,25,14,31,22.00
2012,01,25,14,32,20.90
2012,01,25,14,33,20.40
2012,01,25,14,34,22.90
2012,01,25,14,35,19.60
2012,01,25,14,36,22.20
2012,01,25,14,37,26.30
2012,01,25,14,38,25.30
2012,01,25,14,39,25.00
2012,01,25,14,40,28.60
2012,01,25,14,41,28.60
2012,01,25,14,42,27.30
2012,01,25,14,43,27.30
2012,01,25,14,44,24.30
2012,01,25,14,45,27.40
2012,01,25,14,46,25.50
2012,01,25,14,47,21.90
2012,01,25,14,48,18.80
2012,01,25,14,49,18.40
2012,01,25,14,50,22.50
2012,01,25,14,51,17.70
2012,01,25,14,52,19.80
2012,01,25,14,53,28.50
2012,01,25,14,54,27.90
2012,01,25,14,55,21.40
2012,01,25,14,56,21.00
2012,01,25,14,57,27.00
2012,01,25,14,58,30.20
2012,01,25,14,59,27.60
2012,01,25,15,00,28.30
2012,01,25,15,01,28.80
2012,01,25,15,02,22.40
2012,01,25,15,03,19.50
2012,01,25,15,04,15.30
2012,01,25,15,05,19.10
2012,01,25,15,06,22.50
2012,01,25,15,07,17.40
2012,01,25,15,08,17.30
2012,01,25,15,09,17.10
2012,01,25,15,10,22.90
2012,01,25,15,11,21.00
2012,01,25,15,12,22.10
2012,01,25,15,13,15.40
2012,01,25,15,14,15.10
2012,01,25,15,15,18.00
2012,01,25,15,16,16.00
2012,01,25,15,17,17.20
2012,01,25,15,18,21.20
2012,01,25,15,19,16.60
2012,01,25,15,20,17.30
2012,01,25,15,21,16.60
2012,01,25,15,22,13.90
2012,01,25,15,23,15.80
2012,01,25,15,24,17.20
2012,01,25,15,25,15.60
2012,01,25,15,26,13.90
2012,01,25,15,27,10.40
2012,01,25,15,28,21.10
2012,01,25,15,29,17.10
2012,01,25,15,30,18.70
2012,01,25,15,31,20.10
2012,01,25,15,32,20.00
2012,01,25,15,33,17.70
2012,01,25,15,34,21.60
2012,01,25,15,35,22.50
2012,01,25,15,36,24.10
2012,01,25,15,37,21.50
2012,01,25,15,38,24.30
2012,01,25,15,39,16.60
2012,01,25,15,40,14.60
2012,01,25,15,41,21.20
2012,01,25,15,42,24.40
2012,01,25,15,43,24.20
2012,01,25,15,44,25.00
2012,01,25,15,45,25.80
2012,01,25,15,46,29.10
2012,01,25,15,47,21.20
2012,01,25,15,48,19.60
2012,01,25,15,49,27.00
2012,01,25,15,50,26.80
2012,01,25,15,51,23.60
2012,01,25,15,52,25.20
2012,01,25,15,53,25.70
2012,01,25,15,54,25.20
2012,01,25,15,55,20.90
2012,01,25,15,56,19.00
2012,01,25,15,57,24.10
2012,01,25,15,58,24.40
2012,01,25,15,59,26.30
2012,01,25,16,00,24.50
2012,01,25,16,01,23.40
2012,01,25,16,02,22.40
2012,01,25,16,03,25.40
2012,01,25,16,04,25.30
2012,01,25,16,05,18.20
2012,01,25,16,06,19.00
2012,01,25,16,07,16.20
2012,01,25,16,08,19.00
2012,01,25,16,09,19.90
2012,01,25,16,10,15.60
2012,01,25,16,11,21.00
2012,01,25,16,12,23.30
2012,01,25,16,13,16.40
2012,01,25,16,14,21.00
2012,01,25,16,15,15.90
2012,01,25,16,16,17.50
2012,01,25,16,17,15.30
2012,01,25,16,18,20.80
2012,01,25,16,19,17.20
2012,01,25,16,20,25.40
2012,01,25,16,21,25.30
2012,01,25,16,22,21.70
2012,01,25,16,23,26.20
2012,01,25,16,24,19.60
2012,01,25,16,25,15.40
2012,01,25,16,26,21.10
2012,01,25,16,27,20.80
2012,01,25,16,28,19.70
2012,01,25,16,29,21.20
2012,01,25,16,30,16.90
2012,01,25,16,31,11.70
2012,01,25,16,32,12.10
2012,01,25,16,33,14.00
2012,01,25,16,34,15.80
2012,01,25,16,35,14.20
2012,01,25,16,36,17.30
2012,01,25,16,37,18.30
2012,01,25,16,38,18.40
2012,01,25,16,39,17.80
2012,01,25,16,40,17.50
2012,01,25,16,41,14.30
2012,01,25,16,42,18.60
2012,01,25,16,43,13.20
2012,01,25,16,44,13.90
2012,01,25,16,45,12.10
2012,01,25,16,46,9.70
2012,01,25,16,47,8.60
2012,01,25,16,48,9.10
2012,01,25,16,49,9.00
2012,01,25,16,50,7.60
2012,01,25,16,51,8.80
2012,01,25,16,52,10.50
2012,01,25,16,53,16.30
2012,01,25,16,54,19.30
2012,01,25,16,55,17.60
2012,01,25,16,56,16.30
2012,01,25,16,57,13.60
2012,01,25,16,58,15.50
2012,01,25,16,59,16.10
2012,01,25,17,00,9.40
2012,01,25,17,01,12.60
2012,01,25,17,02,9.70
2012,01,25,17,03,10.60
2012,01,25,17,04,9.80
2012,01,25,17,05,10.30
2012,01,25,17,06,9.20
2012,01,25,17,07,11.40
2012,01,25,17,08,12.30
2012,01,25,17,09,12.40
2012,01,25,17,10,12.90
2012,01,25,17,11,9.10
2012,01,25,17,12,9.30
2012,01,25,17,13,9.20
2012,01,25,17,14,11.70
2012,01,25,17,15,12.60
2012,01,25,17,16,9.10
2012,01,25,17,17,10.20
2012,01,25,17,18,12.00
2012,01,25,17,19,14.70
2012,01,25,17,20,13.30
2012,01,25,17,21,9.30
2012,01,25,17,22,7.50
2012,01,25,17,23,10.50
2012,01,25,17,24,13.80
2012,01,25,17,25,12.50
2012,01,25,17,26,10.90
2012,01,25,17,27,13.40
2012,01,25,17,28,16.30
2012,01,25,17,29,17.40
2012,01,25,17,30,15.00
2012,01,25,17,31,13.50
2012,01,25,17,32,13.70
2012,01,25,17,33,13.60
2012,01,25,17,34,13.40